OBJECT_NAME,OBJECT_ID,EPOCH,MEAN_MOTION,ECCENTRICITY,INCLINATION,RA_OF_ASC_NODE,ARG_OF_PERICENTER,MEAN_ANOMALY,EPHEMERIS_TYPE,CLASSIFICATION_TYPE,NORAD_CAT_ID,ELEMENT_SET_NO,REV_AT_EPOCH,BSTAR,MEAN_MOTION_DOT,MEAN_MOTION_DDOT HST,1990-037B,2026-09-12T05:15:24.763104,15.31621652,.00017951,28.4730,205.3366,39.5104,320.5623,0,U,20580,999,80192,.14867041E-3,.4906E-4,0 POLAR,1996-013A,2026-09-11T07:18:24.221664,1.29845775,.655829,79.9820,226.0171,206.1267,95.8749,0,U,23802,999,14597,0,.104E-5,0 SWAS,1998-071A,2026-09-12T06:26:00.233664,15.10080214,.00033088,69.8982,2.8729,147.0198,213.1174,0,U,25560,999,51041,.17136976E-3,.2692E-4,0 CXO,1999-040B,2026-09-13T15:32:27.077568,0.37808225,.76964658,57.3946,114.3238,309.4554,0.6118,0,U,25867,999,1766,0,.75E-5,0 XMM-NEWTON,1999-066A,2026-09-14T02:38:50.715744,0.50126814,.46491325,64.0154,281.8333,63.3176,0.1184,0,U,25989,999,2345,0,.5E-6,0 TERRA,1999-068A,2026-09-12T06:12:30.582720,14.61158690,.00015531,97.9374,301.3181,353.3189,48.7649,0,U,25994,999,42232,.55820628E-4,.231E-5,0 TIMED,2001-055B,2026-09-12T04:20:07.357344,14.95450248,.00019425,74.0665,59.8333,237.2040,122.8958,0,U,26998,999,34382,.80928842E-4,.855E-5,0 CORIOLIS,2003-001A,2026-09-12T00:13:29.603424,14.19965807,.00133769,98.7167,260.5837,327.1181,32.9162,0,U,27640,999,22654,.55517233E-4,.74E-6,0 SORCE,2003-004A,2026-09-12T03:07:18.098112,15.04097885,.00184367,39.9900,125.4775,312.8964,47.0283,0,U,27651,999,28499,.14366909E-3,.1879E-4,0 MOST,2003-031D,2026-09-12T06:59:53.003616,14.21337390,.00099627,98.7081,261.8151,7.7134,352.4194,0,U,27843,999,20308,.35651872E-4,.34E-6,0 SCISAT 1,2003-036A,2026-09-12T06:26:52.262016,14.81535573,.00065648,73.9324,358.3078,32.7106,327.4476,0,U,27858,999,24434,.5919667E-4,.428E-5,0 SWIFT,2004-047A,2026-09-12T05:58:08.562144,15.80115486,.00021388,20.5507,228.4892,171.2867,188.7618,0,U,28485,999,20059,.65200008E-3,.130959E-2,0 HINODE (SOLAR-B),2006-041A,2026-09-12T01:12:48.801312,14.68718320,.0017788,98.0551,269.9280,17.0320,343.1479,0,U,29479,999,6762,.74462784E-4,.385E-5,0 SHIJIAN-6 02A (SJ-6 02A),2006-046A,2026-09-12T06:29:23.296992,15.17779810,.00028593,97.6285,297.0105,167.8392,192.2911,0,U,29505,999,8547,.21940587E-3,.4363E-4,0 SHIJIAN-6 02B (SJ-6 02B),2006-046B,2026-09-12T07:36:03.585888,15.01476579,.00160956,97.6994,283.7834,133.6423,226.6139,0,U,29506,999,8381,.23670244E-4,.246E-5,0 FGRST (GLAST),2008-029A,2026-09-12T07:16:54.312096,15.24338581,.00074639,25.5830,319.4079,274.8901,85.0785,0,U,33053,999,899,.83961174E-4,.2452E-4,0 SDO,2010-005A,2026-09-12T01:26:30.969888,1.00274865,.00017254,34.8306,85.0195,72.3988,113.6531,0,U,36395,999,6093,0,-.68E-6,0 CRYOSAT 2,2010-013A,2026-09-12T06:22:17.443488,14.51904265,.00023983,92.0283,298.4493,84.6601,275.4880,0,U,36508,999,87071,.13858403E-4,.59E-6,0 X-SAT,2011-015C,2026-09-12T05:01:33.589920,14.25227034,.00152884,98.3613,228.1300,87.1147,273.1783,0,U,37389,999,80007,-.13728764E-4,-.73E-6,0 GCOM-W1 (SHIZUKU),2012-025A,2026-09-12T07:56:13.510752,14.57132154,.00014777,98.2063,194.5789,87.2935,74.2461,0,U,38337,999,76172,.75197762E-4,.294E-5,0 NUSTAR,2012-031A,2026-09-12T08:00:01.999872,15.09519641,.00087565,6.0271,100.0747,318.8050,50.8558,0,U,38358,999,130,.70553798E-4,.2027E-4,0 NEOSSAT,2013-009D,2026-09-12T00:54:50.188896,14.35852381,.0010842,98.4225,73.0349,354.0028,6.1026,0,U,39089,999,70920,.45653216E-4,.89E-6,0 BRITE-AUSTRIA,2013-009F,2026-09-12T01:30:46.800288,14.36570644,.00098758,98.4046,72.3795,347.7117,12.3827,0,U,39091,999,70952,.47801257E-4,.98E-6,0 IRIS,2013-033A,2026-09-12T07:11:47.857344,14.86032228,.00252738,97.9282,94.2995,36.5528,323.7406,0,U,39197,999,71331,.79621554E-4,.644E-5,0 HISAKI (SPRINT-A),2013-049A,2026-09-12T00:48:59.075712,13.55550441,.01364895,29.7188,138.4712,0.8446,359.2340,0,U,39253,999,64321,.65412102E-4,.112E-5,0 CASSIOPE,2013-055A,2026-09-12T05:57:00.072864,15.31351897,.02702952,80.9139,320.5083,127.5442,235.0690,0,U,39265,999,68096,.37876953E-3,.37946E-3,-.584293E-6 STSAT-3,2013-066G,2026-09-12T07:52:47.129664,15.03168992,.001078,97.6309,223.8664,97.9076,262.3373,0,U,39422,999,69729,.22542143E-3,.2989E-4,0 SWARM B,2013-067A,2026-09-12T06:08:59.995680,15.29026961,.00034575,87.7445,315.8802,91.0145,269.1501,0,U,39451,999,69654,.80342816E-4,.2299E-4,0 SWARM A,2013-067B,2026-09-12T08:08:08.649600,15.50718113,.0002345,87.3354,23.8574,99.2125,260.9401,0,U,39452,999,71975,.15237659E-3,.8795E-4,0 SWARM C,2013-067C,2026-09-12T08:07:58.959840,15.50716618,.00023483,87.3358,22.4403,99.5260,260.6267,0,U,39453,999,71971,.14665479E-3,.8465E-4,0 BRITE-CA1 (TORONTO),2014-033L,2026-09-12T03:19:39.965664,14.72810461,.00783486,97.9852,22.5213,359.5828,0.5301,0,U,40020,999,65501,.73122505E-4,.436E-5,0 OCO 2,2014-035A,2026-09-12T03:49:13.863072,14.57087933,.00016736,98.2062,195.1438,80.3099,279.8288,0,U,40059,999,64871,.65410471E-4,.249E-5,0 BRITE-PL2 (HEWELIUSZ),2014-049B,2026-09-12T03:09:14.379552,14.94848763,.00140473,97.9165,7.8481,175.1387,184.9972,0,U,40119,999,65443,.16541824E-3,.1745E-4,0 MMS 1,2015-011A,2026-09-12T08:00:01.999872,0.28342593,.82599138,72.9221,347.7877,169.3357,188.1776,0,U,40482,999,140,0,-.1792E-4,0 MMS 2,2015-011B,2026-09-12T08:00:01.999872,0.28342545,.82627502,72.9265,347.7866,169.3371,188.1566,0,U,40483,999,140,0,-.1793E-4,0 MMS 3,2015-011C,2026-09-12T08:00:01.999872,0.28342646,.82611981,72.9269,347.7986,169.3458,188.1309,0,U,40484,999,140,0,-.1793E-4,0 MMS 4,2015-011D,2026-09-12T08:00:01.999872,0.28342531,.82611902,72.9197,347.7826,169.3555,188.1263,0,U,40485,999,140,0,-.1793E-4,0 ASTROSAT,2015-052A,2026-09-11T19:16:23.601216,14.82637343,.00079461,5.9967,251.8326,195.9703,164.0174,0,U,40930,999,59270,.80889331E-4,.1338E-4,0 DAMPE,2015-078A,2026-09-12T07:09:42.018336,15.30971272,.00132627,97.4592,261.2229,121.6003,238.6534,0,U,41173,999,59787,.28477327E-4,.776E-5,0 PISAT,2016-059B,2026-09-12T06:13:34.117824,14.69120723,.00275392,97.8244,252.0036,288.4502,71.3712,0,U,41784,999,53252,.11491638E-3,.631E-5,0 HXMT (HUIYAN),2017-034A,2026-09-12T03:23:18.874752,15.19110868,.0031975,43.0145,58.6158,334.7522,25.1763,0,U,42758,999,51088,.17389257E-3,.352E-4,0 FLYING LAPTOP,2017-042G,2026-09-12T07:02:12.418656,15.01579794,.00162214,97.4996,47.7012,183.7209,176.3898,0,U,42831,999,49952,.1276033E-3,.1599E-4,0 ZHANGHENG 1-01 (CSES-1),2018-015C,2026-09-12T07:36:50.243616,15.20589907,.00137864,97.6953,62.7536,339.0201,21.0466,0,U,43194,999,47788,.20168277E-3,.4356E-4,0 SALSAT,2020-068K,2026-09-11T23:28:21.147456,15.30885844,.00094697,97.8880,263.4175,9.1845,350.9566,0,U,46495,999,32863,.20261281E-3,.5968E-4,0 IXPE,2021-121A,2026-09-12T08:00:01.999872,15.10948202,.00072602,0.2305,18.1297,321.2451,28.4444,0,U,49954,999,544,.41881361E-3,.8129E-4,0 SMILE,2026-109A,2026-09-08T19:23:04.222464,0.47517332,.81869537,70.0169,206.2692,285.8683,5.3377,0,U,69123,999,34,0,.485E-5,0